Temperature
16 16 16 16 16 16 15 15 15 15 15 15 15 15 15 15 14 14 14 14 14 14 14 14 14 14 13 13 13 13 13 13 12 12 12 12 12 12 12 11 11 11 11
16 16 16 16 16 16 15 15 15 15 15 15 15 15 15 15 14 14 14 14 14 14 14 14 14 13 13 13 13 13 13 13 12 12 12 12 12 11 11 11 11 11 11
16 16 16 16 16 16 15 15 15 15 15 15 15 15 15 14 14 14 14 14 14 14 14 14 14 13 13 13 13 13 13 12 12 12 12 12 11 11 11 11 11 11 11
16 16 16 16 16 15 15 15 15 15 15 14 14 14 14 14 14 14 14 14 14 14 14 13 13 13 13 13 13 13 13 12 12 12 12 11 11 11 11 11 11 11 10
16 16 16 16 15 15 15 15 15 15 14 14 14 14 14 14 14 14 14 14 14 13 13 13 13 13 13 13 13 13 12 12 12 12 12 12 11 11 11 11 11 10 10
16 16 16 16 15 15 15 15 15 14 14 14 14 14 14 14 14 14 13 13 13 13 13 13 13 13 13 13 13 12 12 12 12 12 12 12 11 11 11 11 10 10 10
16 16 16 15 15 15 15 15 15 14 14 14 14 14 14 14 13 13 13 13 13 13 13 13 13 13 13 12 12 12 12 12 12 12 11 11 11 11 11 11 10 10 10
16 15 15 15 15 15 15 14 14 14 14 14 14 14 13 13 13 13 13 13 13 13 13 13 13 13 12 12 12 12 12 12 12 11 11 11 11 11 10 10 10 10 10
15 15 15 15 15 15 15 14 14 14 14 14 14 13 13 13 13 13 13 13 13 13 13 13 12 12 12 12 12 12 12 12 11 11 11 11 11 10 10 10 10 10 10
15 15 15 15 15 15 14 14 14 14 14 13 13 13 13 13 13 13 13 13 12 13 13 13 12 12 12 12 12 12 11 11 11 11 11 11 10 10 10 10 10 9 9
15 15 15 14 14 14 14 14 13 13 13 13 13 13 13 13 13 13 12 12 12 12 12 12 12 12 12 12 12 11 11 11 11 11 11 10 10 10 10 10 10 9 9
15 14 14 14 14 14 14 13 13 13 13 13 13 13 13 12 12 12 12 12 12 12 12 12 12 12 12 11 11 11 11 11 10 10 10 10 10 10 10 10 9 9 9
14 14 14 14 14 14 13 13 13 13 12 12 12 12 12 12 12 12 12 12 12 11 11 11 11 11 11 11 11 11 10 10 10 10 10 10 10 10 9 9 9 9 9
14 14 14 13 13 13 13 13 13 12 12 12 12 12 12 12 12 12 12 11 11 11 11 11 11 11 11 11 11 10 10 10 10 10 10 10 9 9 9 9 9 9 8
13 13 13 13 13 13 13 13 12 12 12 12 12 12 12 12 12 12 12 11 11 11 11 11 11 10 10 10 10 10 10 10 9 9 9 9 9 9 9 9 8 8 8
13 13 13 13 12 12 12 12 12 12 12 12 12 12 12 12 11 11 11 11 11 10 10 10 10 10 10 10 10 10 10 10 9 9 9 9 9 9 9 8 8 8 8
12 12 12 12 12 12 11 11 11 11 11 11 11 11 11 11 11 11 11 10 10 10 10 10 10 10 10 10 10 10 9 9 9 9 9 9 8 8 8 8 8 7 7
12 12 11 11 11 11 11 11 11 11 11 11 11 11 11 11 10 10 10 10 10 10 10 10 10 10 9 9 9 9 9 9 9 8 8 8 8 8 8 8 7 7 7
11 11 11 11 11 11 10 10 10 10 10 10 10 10 10 10 10 10 9 9 9 9 9 9 9 9 9 9 9 9 9 8 8 8 8 8 8 8 7 7 7 7 7
10 10 10 10 10 10 10 10 10 10 10 10 10 10 10 9 9 9 9 9 9 9 9 9 9 9 9 9 9 8 8 8 8 8 8 7 7 7 7 7 7 6 6
10 10 10 10 10 10 10 10 10 10 9 9 9 9 9 9 9 9 9 9 9 9 9 8 8 8 8 8 8 8 8 8 8 7 7 7 7 7 7 6 6 6 6
9 9 9 9 9 9 9 9 9 9 9 9 8 8 8 8 8 8 8 8 8 8 8 8 8 8 8 8 7 7 7 7 7 7 7 7 7 6 6 6 6 5 5
8 8 8 9 8 8 8 8 8 8 8 8 8 8 8 8 8 8 8 8 8 7 7 7 7 7 7 7 7 7 7 7 7 7 6 6 6 6 6 6 5 5 5
8 8 8 8 8 8 8 8 8 8 7 7 7 7 7 7 7 7 7 7 7 7 7 7 7 7 7 7 7 6 6 6 6 6 6 6 6 6 5 5 5 5 5
7 7 7 7 7 7 7 7 7 7 7 7 7 7 7 6 6 6 6 6 6 6 6 6 6 6 6 6 6 6 6 6 6 6 5 5 5 5 5 5 5 4 4
7 7 7 7 6 6 6 6 6 6 6 6 6 6 6 6 6 6 6 6 6 6 6 6 6 6 6 6 6 5 5 5 5 5 5 5 5 5 4 4 4 4 4
Wind_Speed
5 5 5 5 5 5 5 5 5 4 4 4 3 3 2 2 2 3 3 3 3 2 2 3 3 2 2 2 2 2 2 4 3 1 1 0 1 1 2 2 1 1 2
5 5 5 5 5 5 5 5 5 5 4 4 4 3 3 2 2 3 4 4 4 4 3 3 3 3 2 2 2 2 2 3 4 3 0 0 1 1 2 1 1 1 1
5 5 5 5 5 5 5 5 5 5 4 4 4 4 3 3 2 3 4 4 4 4 4 5 4 4 3 2 3 3 2 2 3 4 2 1 0 0 1 0 1 1 0
4 5 5 5 6 6 5 5 5 5 5 5 4 4 4 3 3 3 3 3 3 3 4 5 5 5 5 4 3 3 3 3 3 3 2 1 0 0 1 1 0 1 1
5 5 6 6 5 5 5 5 5 5 6 5 5 4 4 3 4 4 3 4 4 3 3 4 5 5 6 5 4 4 5 4 3 3 2 1 1 1 2 1 1 1 1
5 5 5 5 5 5 5 5 5 5 5 5 5 5 5 4 5 7 5 4 4 5 4 4 4 4 5 6 7 7 8 6 5 4 3 3 3 3 2 2 2 1 2
5 5 4 5 5 5 5 4 5 5 5 5 5 5 5 6 7 7 8 5 5 5 5 5 4 4 4 4 5 6 6 8 8 6 5 5 5 5 4 3 3 3 3
5 5 5 5 5 4 4 5 5 4 5 5 5 6 5 6 7 8 7 5 4 5 6 6 5 5 5 6 5 4 4 5 6 6 6 6 6 6 6 5 4 2 2
5 6 6 6 6 6 6 6 5 4 4 4 4 6 6 6 8 8 6 3 3 4 5 5 6 6 7 8 6 5 4 4 5 7 8 7 6 7 7 4 3 2 1
7 7 6 6 7 7 7 6 4 4 5 5 5 5 6 7 8 8 7 4 4 4 4 5 7 7 8 8 7 6 6 5 3 3 3 4 4 5 7 6 5 3 2
7 6 5 6 7 7 6 5 4 4 4 5 5 5 6 7 8 9 9 5 5 5 5 5 6 9 8 9 8 7 8 6 4 4 3 2 2 2 4 5 5 4 4
5 5 6 6 6 5 5 5 5 5 5 5 4 5 5 6 7 8 10 9 7 6 6 5 6 9 9 9 7 7 7 5 3 3 3 3 3 4 4 5 6 6 6
5 6 6 6 6 5 6 6 5 5 5 5 5 6 5 4 5 9 10 10 10 6 6 8 8 8 8 7 8 7 6 4 4 4 5 5 5 5 3 2 2 2 2
5 6 6 6 5 5 5 6 6 6 6 6 6 6 5 4 5 5 5 6 7 6 5 6 7 6 5 5 5 4 4 5 5 5 5 4 3 3 3 3 3 2 1
6 6 5 6 6 6 6 6 7 8 8 8 7 7 6 7 8 9 7 6 6 6 4 2 2 3 3 3 3 3 4 4 5 5 5 4 4 4 4 3 3 3 3
5 6 5 5 5 5 5 5 7 7 9 10 10 9 8 9 9 10 11 11 10 9 5 4 5 5 6 6 6 5 5 6 6 6 5 5 5 5 5 4 3 4 5
6 6 5 5 5 5 5 6 5 5 6 8 10 10 10 9 9 9 10 9 9 8 6 6 7 7 7 7 6 6 6 6 6 6 6 6 6 5 5 5 5 5 5
5 5 5 4 5 5 6 6 6 5 5 4 6 9 10 10 9 9 8 5 5 6 6 7 7 7 6 7 7 6 6 5 5 6 6 6 6 6 6 6 6 6 6
4 4 4 4 4 4 4 4 4 5 5 4 3 4 6 7 7 8 8 5 6 6 7 6 7 6 6 6 6 6 6 6 6 6 6 6 6 6 6 6 6 7 6
4 5 5 4 4 4 4 4 4 4 4 4 4 4 2 2 3 5 5 5 6 6 6 7 6 6 6 6 6 6 6 6 6 6 6 6 6 7 7 8 7 6 6
3 3 5 4 4 5 5 5 5 5 5 5 5 5 6 5 6 6 6 6 6 6 6 6 5 5 5 5 5 6 7 7 6 6 6 6 6 6 7 7 7 7 6
2 3 3 4 4 4 5 5 5 5 5 5 4 4 5 4 4 5 5 5 5 5 5 5 5 5 5 5 6 6 6 6 6 6 6 6 6 6 6 6 6 6 6
3 3 3 3 3 4 4 4 4 4 5 5 5 4 4 5 5 5 5 5 4 4 4 4 4 4 4 5 6 7 7 7 7 6 6 6 6 6 6 6 7 7 7
3 3 4 3 3 3 3 3 3 4 4 5 5 5 5 5 5 5 4 4 3 3 4 4 5 5 5 5 5 5 6 6 7 7 8 7 7 6 5 5 6 7 7
3 3 3 3 3 3 3 3 3 3 4 4 4 4 4 4 4 4 3 3 3 3 4 4 4 5 6 6 6 6 7 7 7 6 6 6 6 6 6 6 5 5 6
2 2 2 2 3 3 3 3 3 3 3 3 3 3 4 4 3 3 3 3 3 3 3 3 4 4 5 5 6 6 7 7 8 8 7 5 5 6 6 5 6 5 5
Wind_Direction
186 181 175 179 178 174 173 181 182 181 172 166 169 166 172 174 170 162 180 162 155 162 158 157 169 157 143 140 134 132 135 136 149 240 256 158 127 136 91 106 117 134 148
189 182 183 179 177 181 187 189 182 179 180 176 172 169 177 175 167 172 181 175 168 172 178 166 179 162 158 162 151 154 156 154 151 169 196 112 180 188 150 135 89 149 180
180 177 182 185 184 191 198 195 185 180 180 176 171 177 183 181 176 184 179 177 178 184 183 177 182 161 172 178 167 165 167 154 143 154 174 187 248 144 98 65 70 53 113
179 177 185 193 195 197 195 191 186 178 176 180 180 183 186 184 179 178 175 178 182 189 191 186 182 175 182 180 174 171 159 144 139 145 158 179 201 232 115 146 334 314 280
183 187 198 197 195 195 192 193 188 185 187 186 182 186 187 186 189 180 181 184 185 192 200 203 199 189 184 181 177 173 161 155 152 156 171 165 194 183 206 206 191 265 298
188 200 199 189 190 194 197 191 187 192 192 186 191 192 199 210 196 189 182 189 190 192 202 211 209 203 198 190 181 176 172 169 173 171 186 194 215 208 190 180 168 147 279
197 202 197 189 193 199 199 190 193 197 193 192 198 195 205 213 205 197 193 189 195 201 203 203 207 202 193 195 193 186 187 184 178 174 183 204 204 203 182 182 192 193 223
204 208 205 198 196 197 194 201 208 201 194 198 202 201 206 220 213 209 202 193 199 205 206 200 198 205 200 185 181 188 205 213 203 192 196 210 209 196 185 188 189 193 256
214 217 214 205 198 194 199 208 208 200 205 206 202 199 205 224 219 212 198 185 199 215 216 208 201 206 208 190 180 191 212 239 230 211 212 213 208 197 175 142 142 143 246
221 222 216 208 204 205 207 207 209 206 214 208 212 210 208 220 223 212 196 182 197 217 224 217 212 211 210 193 187 192 209 226 211 198 210 221 210 202 186 176 176 175 191
224 221 215 213 214 212 208 205 205 210 213 213 219 227 221 221 223 214 203 196 203 212 219 225 224 217 211 205 198 201 214 205 190 189 195 208 213 213 207 197 186 181 185
219 217 220 220 221 220 207 207 202 200 211 221 223 234 236 226 221 220 214 212 208 207 220 223 225 219 214 212 210 217 214 194 178 180 190 212 219 223 220 209 208 209 210
219 225 228 225 223 214 206 208 207 204 210 221 222 231 239 231 228 228 223 219 219 221 224 223 226 224 215 216 217 213 202 190 186 195 210 224 224 220 204 192 193 191 231
225 230 226 220 223 220 214 210 210 211 216 220 224 232 239 234 227 223 220 223 222 225 226 227 225 221 214 216 220 214 207 202 201 210 214 221 212 200 200 197 198 191 217
229 230 227 219 217 221 223 221 217 218 215 218 222 221 224 237 235 220 213 217 212 211 195 199 211 215 214 216 217 214 208 205 212 214 211 213 211 209 213 202 194 189 204
234 233 227 223 221 220 224 245 243 237 236 231 225 222 231 235 236 229 228 226 219 207 196 208 217 217 218 215 215 220 217 215 216 214 211 211 213 213 213 204 196 202 218
234 233 228 225 223 220 219 222 241 264 248 238 234 232 235 235 230 227 227 226 220 204 209 215 217 218 220 216 215 217 221 218 210 207 211 212 211 212 212 214 211 217 226
242 237 229 222 219 221 223 224 224 228 241 256 248 236 233 229 224 222 217 207 222 212 216 218 220 219 218 217 217 218 220 213 207 209 212 214 211 212 216 218 217 218 224
242 239 230 223 216 217 219 220 222 227 232 243 258 255 236 229 221 217 202 211 215 219 220 223 224 220 217 214 214 215 214 213 210 209 214 217 215 214 219 221 220 223 222
249 249 237 223 219 219 215 216 219 222 225 228 233 237 224 215 225 222 221 222 218 219 220 223 224 221 217 213 211 211 213 216 215 217 218 219 219 216 221 222 220 220 222
257 255 244 234 225 223 218 217 217 218 223 229 234 230 217 222 224 225 225 225 222 221 220 223 223 219 219 215 212 212 213 218 219 219 220 220 221 224 224 223 222 221 223
255 245 232 226 227 227 225 220 219 221 224 227 235 232 223 223 225 222 221 225 224 222 221 218 220 221 217 215 213 214 218 221 221 221 222 221 222 226 226 224 224 223 223
258 253 247 239 231 235 237 227 220 220 224 226 224 220 218 223 229 226 224 225 222 223 220 217 221 226 221 213 209 211 218 222 221 217 219 221 223 225 223 224 224 222 221
258 249 245 241 232 226 227 230 230 227 225 225 223 220 220 225 229 229 229 226 228 231 217 211 214 216 217 217 212 212 216 218 215 213 214 217 221 222 222 225 225 223 220
268 258 247 236 230 227 229 232 233 232 232 230 227 225 222 226 226 229 231 226 225 229 225 214 210 211 211 214 215 216 219 216 217 213 208 213 217 219 218 221 224 223 221
276 264 258 245 239 233 229 231 233 235 236 234 233 230 221 219 217 219 223 223 225 232 230 218 210 211 214 213 212 213 214 213 213 214 207 208 215 220 217 217 216 216 216
Height
1535 1536 1537 1538 1539 1540 1541 1541 1542 1542 1542 1542 1543 1543 1543 1544 1544 1545 1545 1546 1546 1546 1547 1547 1547 1548 1548 1548 1549 1549 1549 1549 1549 1550 1550 1550 1550 1550 1549 1548 1548 1547 1546
1533 1534 1535 1536 1537 1538 1538 1539 1540 1540 1541 1541 1541 1541 1542 1542 1543 1543 1543 1544 1544 1545 1545 1546 1546 1546 1547 1547 1547 1548 1548 1548 1548 1548 1549 1549 1549 1549 1548 1548 1547 1546 1546
1531 1531 1532 1533 1534 1535 1536 1537 1538 1538 1539 1539 1539 1539 1540 1540 1540 1541 1542 1542 1542 1543 1543 1544 1544 1544 1545 1545 1545 1546 1546 1546 1547 1547 1547 1547 1547 1547 1547 1546 1546 1545 1544
1528 1529 1530 1531 1532 1532 1534 1535 1535 1536 1536 1537 1537 1537 1538 1538 1538 1539 1539 1540 1540 1541 1541 1542 1542 1542 1543 1543 1543 1543 1544 1544 1545 1545 1545 1545 1545 1545 1545 1544 1544 1543 1543
1525 1526 1527 1528 1529 1530 1530 1531 1533 1533 1534 1535 1535 1535 1535 1536 1536 1536 1537 1537 1538 1538 1539 1539 1540 1540 1541 1541 1541 1541 1542 1542 1542 1543 1543 1543 1543 1543 1542 1542 1542 1541 1541
1522 1523 1524 1525 1526 1526 1527 1528 1529 1530 1531 1531 1532 1532 1532 1533 1533 1534 1534 1534 1535 1535 1536 1537 1537 1538 1538 1538 1539 1539 1539 1540 1540 1540 1540 1540 1540 1540 1540 1540 1540 1539 1538
1519 1520 1521 1521 1522 1523 1524 1525 1526 1526 1527 1528 1528 1529 1529 1530 1530 1531 1531 1532 1532 1532 1533 1534 1534 1535 1535 1535 1536 1536 1536 1537 1537 1538 1537 1538 1538 1538 1538 1538 1537 1537 1536
1516 1516 1517 1518 1519 1519 1520 1521 1522 1523 1523 1524 1525 1525 1526 1526 1527 1527 1528 1528 1529 1529 1530 1530 1531 1531 1532 1532 1532 1533 1533 1533 1534 1534 1535 1535 1535 1535 1535 1535 1535 1535 1534
1512 1512 1513 1514 1515 1515 1516 1517 1517 1518 1519 1520 1521 1521 1522 1522 1523 1524 1524 1524 1525 1525 1526 1527 1527 1528 1528 1529 1529 1529 1529 1530 1530 1531 1531 1532 1532 1532 1532 1532 1531 1531 1530
1508 1508 1509 1510 1511 1511 1512 1512 1513 1514 1515 1515 1516 1517 1517 1518 1519 1519 1520 1520 1520 1521 1522 1522 1523 1523 1524 1524 1525 1525 1525 1526 1526 1527 1528 1528 1528 1529 1529 1528 1528 1528 1527
1504 1504 1505 1506 1506 1507 1507 1508 1508 1509 1510 1510 1511 1512 1513 1513 1514 1515 1515 1516 1516 1516 1517 1517 1518 1519 1519 1520 1520 1521 1521 1522 1522 1523 1523 1524 1524 1524 1525 1525 1525 1524 1524
1500 1500 1500 1501 1502 1502 1502 1503 1504 1504 1505 1505 1506 1506 1507 1508 1509 1510 1510 1511 1511 1512 1512 1512 1513 1513 1514 1515 1515 1516 1517 1517 1518 1518 1518 1519 1519 1520 1520 1521 1521 1521 1521
1495 1495 1495 1496 1496 1497 1497 1498 1498 1499 1499 1500 1500 1501 1501 1503 1504 1504 1505 1506 1506 1506 1507 1507 1508 1508 1509 1509 1510 1511 1512 1512 1512 1513 1513 1514 1515 1515 1516 1516 1516 1516 1516
1489 1490 1490 1490 1491 1491 1492 1493 1493 1493 1494 1494 1495 1495 1496 1496 1497 1498 1499 1500 1500 1500 1501 1502 1502 1503 1503 1504 1505 1505 1506 1507 1507 1507 1508 1509 1510 1510 1511 1511 1511 1511 1511
1484 1484 1484 1484 1485 1485 1486 1487 1487 1488 1489 1489 1489 1489 1490 1490 1491 1492 1493 1493 1494 1494 1495 1495 1496 1496 1497 1497 1498 1499 1500 1501 1501 1502 1502 1503 1504 1504 1505 1506 1506 1506 1506
1478 1478 1478 1478 1479 1479 1480 1480 1481 1482 1483 1483 1484 1484 1484 1485 1485 1486 1487 1487 1488 1489 1489 1489 1489 1490 1490 1491 1492 1493 1494 1494 1495 1496 1497 1497 1498 1498 1499 1500 1500 1500 1500
1472 1472 1472 1472 1472 1473 1474 1474 1474 1475 1476 1477 1477 1478 1478 1479 1479 1480 1480 1481 1482 1482 1482 1482 1483 1483 1484 1485 1486 1487 1487 1488 1489 1490 1490 1491 1492 1493 1493 1494 1494 1494 1494
1466 1466 1465 1465 1466 1467 1467 1468 1469 1469 1469 1469 1471 1471 1472 1472 1473 1473 1474 1475 1474 1475 1475 1476 1476 1477 1478 1479 1480 1481 1481 1482 1483 1483 1484 1485 1486 1486 1487 1487 1487 1488 1488
1460 1459 1459 1459 1460 1460 1461 1462 1462 1463 1463 1463 1464 1465 1465 1466 1467 1467 1468 1468 1467 1468 1469 1469 1470 1471 1472 1473 1474 1474 1475 1476 1476 1477 1478 1478 1479 1480 1480 1480 1481 1481 1482
1454 1454 1453 1453 1453 1454 1454 1455 1456 1456 1456 1457 1457 1457 1458 1459 1459 1459 1460 1460 1460 1461 1462 1463 1464 1464 1465 1466 1467 1468 1469 1469 1470 1471 1471 1472 1472 1473 1473 1474 1474 1474 1475
1448 1448 1448 1447 1447 1447 1448 1449 1449 1450 1450 1450 1451 1451 1452 1453 1453 1453 1453 1454 1454 1454 1455 1456 1457 1458 1459 1460 1460 1461 1462 1462 1463 1464 1464 1465 1465 1466 1466 1467 1467 1468 1468
1443 1442 1442 1441 1441 1442 1442 1443 1443 1443 1444 1444 1444 1445 1445 1446 1447 1447 1447 1448 1448 1449 1450 1450 1451 1451 1452 1453 1454 1454 1455 1455 1456 1457 1457 1458 1458 1459 1459 1459 1460 1461 1461
1437 1437 1436 1436 1436 1436 1436 1437 1437 1437 1437 1438 1438 1438 1439 1439 1440 1440 1441 1441 1442 1442 1443 1443 1444 1444 1445 1446 1447 1447 1448 1448 1449 1450 1450 1450 1451 1451 1452 1452 1453 1453 1454
1432 1432 1431 1430 1430 1430 1430 1430 1431 1431 1431 1432 1432 1432 1432 1433 1433 1433 1434 1435 1435 1436 1436 1437 1437 1437 1438 1439 1439 1440 1441 1441 1442 1443 1443 1443 1444 1444 1445 1445 1446 1446 1447
1428 1427 1426 1426 1425 1425 1425 1425 1425 1425 1425 1425 1426 1426 1426 1426 1426 1427 1428 1428 1428 1429 1429 1430 1430 1430 1431 1431 1432 1433 1433 1434 1435 1435 1436 1436 1436 1437 1438 1438 1439 1439 1440
1423 1422 1422 1421 1420 1420 1420 1420 1420 1420 1420 1420 1420 1420 1420 1420 1420 1421 1421 1421 1422 1422 1422 1422 1423 1423 1423 1424 1424 1425 1426 1427 1428 1428 1429 1429 1429 1430 1431 1431 1432 1433 1433